User: anonymous   Login
Location: Peebles
(55.6412°N, 3.1714°W)
Time: 06:17:39
(UTC+00:00)
Language:

Cosmos 971 Rocket - Orbit

View from above orbital plane
View from above orbital plane
View from above satellite
View from above satellite

Ground track
Ground track

The orbit data is extracted from the following two-line orbital elements,

1 10537U 77122B   22334.29010181  .00000094  00000-0  82154-4 0  9998
2 10537  82.9345  78.7386 0019214 218.9735 169.9155 13.75309902254668
Epoch (UTC): 30 November 2022 06:57:44
Eccentricity: 0.0019214
inclination: 82.9345°
perigee height: 966 km
apogee height: 995 km
right ascension of ascending node: 78.7386°
argument of perigee: 218.9735°
revolutions per day: 13.75309902
mean anomaly at epoch: 169.9155°
orbit number at epoch: 25466

The dashed part of the orbit path shows where the satellite is in the earth's shadow,  

DLR